Weather Roundup
Issued by NWS Springfield, MO

Home | Current Version | Previous Version | Graphics & Text | Print | Product List | Glossary On
Versions: 1 2 3 4 5 6 7 8 9 10 11 12 13 14 15 16 17 18 19 20 21 22 23 24 25 26 27 28 29 30 31 32 33 34 35 36 37 38 39 40 41 42 43 44 45 46 47 48 49 50
000
NZUS99 KSGF 231307
HRRSGF

HOURLY WEATHER
NATIONAL WEATHER SERVICE SPRINGFIELD MO
800 AM CDT SAT MAY 23 2015

......SGF CWA......

CITY           SKY/WX    TMP DP  RH WIND       PRES   REMARKS
SPRINGFIELD    LGT RAIN  59  51  75 SE12      30.24S
JOPLIN         LGT RAIN  57  55  93 E6        30.23S FOG
WEST PLAINS    CLOUDY    60  49  66 E5        30.30R
ROLLA          CLOUDY    61  50  67 SE9       30.28R
OSAGE BEACH    CLOUDY    61  50  67 E5        30.27S
BRANSON        CLOUDY    57  50  77 E8        30.27S

......SURROUNDING SGF CWA......

CITY           SKY/WX    TMP DP  RH WIND       PRES   REMARKS
CHANUTE        CLOUDY    57  57 100 E8        30.19F FOG
PARSONS        CLOUDY    58  57  97 VRB5      30.20F
COFFEYVILLE    CLOUDY    58  57  97 E8        30.18F
EMPORIA        CLOUDY    57  55  93 SE10      30.18S
GROVE OK       CLOUDY    61  61 100 E5        30.21S
ROGERS AR      LGT RAIN  57  55  93 E10       30.24S
SILOAM SPRINGS CLOUDY    57  52  82 E8        30.22F
HARRISON AR    RAIN      56  53  90 SE10      30.28R FOG
NEAR YELLVILLE CLOUDY    59  54  82 CALM      30.27R

......KANSAS AND MISSOURI......

CITY           SKY/WX    TMP DP  RH WIND       PRES   REMARKS
KANSAS CTY INT CLOUDY    57  55  93 SE7       30.23S
DOWNTOWN KC    CLOUDY    60  53  77 E5        30.22S
COLUMBIA       CLOUDY    62  53  72 SE8       30.29R
SEDALIA        CLOUDY    62  51  67 SE7       30.27R
ST JOSEPH      CLOUDY    58  56  93 NE3       30.23R
ST LOUIS       PTSUNNY   67  55  65 VRB5      30.32S
SPIRIT OF STL  CLOUDY    63  57  81 CALM      30.30S
KIRKSVILLE     CLOUDY    63  56  78 S7        30.29R
WICHITA        DRIZZLE   57  56  96 E9        30.15R FOG
TOPEKA         CLOUDY    60  54  80 SE9       30.19F
OLATHE         LGT RAIN  57  55  93 S12       30.21F FOG

......TENNESSEE......

CITY           SKY/WX    TMP DP  RH WIND       PRES   REMARKS
MEMPHIS        CLOUDY    66  51  58 E7        30.28S
NASHVILLE      CLOUDY    63  54  72 CALM      30.37R

......ARKANSAS.......

CITY           SKY/WX    TMP DP  RH WIND       PRES   REMARKS
FAYETTEVILLE   CLOUDY    59  57  93 E5        30.23S
FT SMITH       CLOUDY    60  56  86 E8        30.23R
LITTLE ROCK    CLOUDY    65  56  72 NE6       30.27R

......OKLAHOMA.......

CITY           SKY/WX    TMP DP  RH WIND       PRES   REMARKS
TULSA          CLOUDY    61  58  90 SE10      30.17R
PONCA CITY     CLOUDY    59  59 100 SE7       30.15R FOG
MCALESTER      CLOUDY    64  60  87 SE7       30.17R
OKLAHOMA CITY  DRZL/FOG  62  61  96 SE10      30.12R VSB 1/2

......IOWA............

CITY           SKY/WX    TMP DP  RH WIND       PRES   REMARKS
DES MOINES     PTSUNNY   62  50  64 E8        30.26S
QUAD CITIES    SUNNY     61  48  62 CALM      30.29S

......ILLINOIS........

CITY           SKY/WX    TMP DP  RH WIND       PRES   REMARKS
QUINCY         PTSUNNY   65  51  60 SE5       30.31R
CHICAGO        MOSUNNY   59  36  42 SE6       30.34S



USA.gov is the U.S. government's official web portal to all federal, state and local government web resources and services.